Date String (YYYY-MM-DD hh:mm:ss) UTC,Instrument flags,absolute air pressure of the measurement (hPa),sample flow rate (lpm),inlet stack bypass flow (lpm),air temperature of the measurement (°C),ambient temperature measured by the external sensor (°C),aerosol sample conditioner tube jacket temperature (°C),OPC LED temperature (°C),internal box temperature (°C),relative humidity of the measurement (%),span deviation,mass concentration of particles derived from Lorenz-Mie calculation of OPC scattering (μg/m³),mass concentration of particles derived from Lorenz-Mie calculation of OPC scattering (μg/m³),mass concentration of particles derived from Lorenz-Mie calculation of OPC scattering (μg/m³)
DateTimeUTC,F1_M11,P_M11,Q1_M11,Q2_M11,T1_M11,T2_M11,T3_M11,T4_M11,T5_M11,U1_M11,ZSPAN_M11,X2_M11,X0_M11,X1_M11
2023-12-12 22:00:00,SystemResetWarning,0833.1,5.00,000.00,019.8,018.9,000.0,028.1,021.1,20.8,0000.0,0005.11,0012.78,0004.54
2023-12-12 22:01:00,SystemResetWarning,0833.1,4.99,000.00,019.8,018.9,000.0,028.1,021.1,20.9,0000.0,0005.10,0012.50,0004.54
2023-12-12 22:02:00,SystemResetWarning,0833.1,5.00,000.00,019.8,018.9,000.0,028.1,021.1,20.8,0000.0,0005.12,0012.29,0004.54
2023-12-12 22:03:00,SystemResetWarning,0833.2,5.00,000.00,019.8,018.9,000.0,028.1,021.1,20.8,0000.0,0005.13,0012.34,0004.54
2023-12-12 22:04:00,SystemResetWarning,0833.1,5.00,000.00,019.8,018.9,000.0,028.1,021.0,20.8,0000.0,0005.17,0011.70,0004.55
2023-12-12 22:05:00,SystemResetWarning,0833.2,5.00,000.00,019.8,018.9,000.0,028.1,021.0,20.9,0000.0,0005.17,0010.29,0004.55
2023-12-12 22:06:00,SystemResetWarning,0833.2,5.01,000.00,019.8,018.9,000.0,028.1,021.0,20.9,0000.0,0005.17,0010.10,0004.56
2023-12-12 22:07:00,SystemResetWarning,0833.2,5.01,000.00,019.8,018.9,000.0,028.1,021.0,20.9,0000.0,0005.17,0010.10,0004.57
2023-12-12 22:08:00,SystemResetWarning,0833.2,5.00,000.00,019.8,018.9,000.0,028.1,021.0,20.9,0000.0,0005.21,0010.15,0004.61
2023-12-12 22:09:00,SystemResetWarning,0833.3,5.00,000.00,019.8,018.9,000.0,028.1,021.0,20.9,0000.0,0005.27,0009.85,0004.64
2023-12-12 22:10:00,SystemResetWarning,0833.3,4.99,000.00,019.8,018.9,000.0,028.1,021.0,20.9,0000.0,0005.30,0009.38,0004.67
2023-12-12 22:11:00,SystemResetWarning,0833.3,4.99,000.00,019.8,018.9,000.0,028.1,021.0,20.9,0000.0,0005.34,0009.16,0004.72
2023-12-12 22:12:00,SystemResetWarning,0833.3,5.00,000.00,019.8,018.9,000.0,028.1,021.0,20.8,0000.0,0005.34,0008.98,0004.75
2023-12-12 22:13:00,SystemResetWarning,0833.3,5.00,000.00,019.8,018.9,000.0,028.1,021.0,20.8,0000.0,0005.35,0009.08,0004.76
2023-12-12 22:14:00,SystemResetWarning,0833.4,5.00,000.00,019.8,018.9,000.0,028.1,021.0,20.8,0000.0,0005.38,0009.13,0004.79
2023-12-12 22:15:00,SystemResetWarning,0833.4,5.00,000.00,019.8,018.9,000.0,028.1,021.0,20.8,0000.0,0005.40,0009.36,0004.84
2023-12-12 22:16:00,SystemResetWarning,0833.4,5.00,000.00,019.8,018.9,000.0,028.1,021.0,20.8,0000.0,0005.47,0009.73,0004.90
2023-12-12 22:17:00,SystemResetWarning,0833.4,5.00,000.00,019.8,018.9,000.0,028.1,021.0,20.8,0000.0,0005.53,0009.76,0004.97
2023-12-12 22:18:00,SystemResetWarning,0833.4,5.01,000.00,019.8,018.9,000.0,028.1,021.0,20.8,0000.0,0005.61,0009.85,0005.01
2023-12-12 22:19:00,SystemResetWarning,0833.4,5.00,000.00,019.8,018.9,000.0,028.1,021.0,20.8,0000.0,0005.64,0009.92,0005.02
2023-12-12 22:20:00,SystemResetWarning,0833.4,5.00,000.00,019.8,018.9,000.0,028.1,021.0,20.8,0000.0,0005.63,0010.05,0005.01
2023-12-12 22:21:00,SystemResetWarning,0833.4,4.99,000.00,019.8,018.9,000.0,028.1,021.0,20.8,0000.0,0005.64,0010.55,0005.01
2023-12-12 22:22:00,SystemResetWarning,0833.4,5.00,000.00,019.8,018.9,000.0,028.1,021.0,20.7,0000.0,0005.69,0011.09,0005.02
2023-12-12 22:23:00,SystemResetWarning,0833.4,5.00,000.00,019.8,018.9,000.0,028.1,021.0,20.7,0000.0,0005.73,0011.33,0005.04
2023-12-12 22:24:00,SystemResetWarning,0833.4,5.00,000.00,019.8,018.9,000.0,028.1,021.0,20.7,0000.0,0005.77,0011.68,0005.08
2023-12-12 22:25:00,SystemResetWarning,0833.4,5.00,000.00,019.8,018.8,000.0,028.1,021.0,20.7,0000.0,0005.82,0012.38,0005.12
2023-12-12 22:26:00,SystemResetWarning,0833.4,5.00,000.00,019.8,018.8,000.0,028.1,021.0,20.7,0000.0,0005.81,0011.99,0005.14
2023-12-12 22:27:00,SystemResetWarning,0833.5,5.00,000.00,019.8,018.8,000.0,028.1,021.0,20.7,0000.0,0005.77,0011.51,0005.13
2023-12-12 22:28:00,SystemResetWarning,0833.5,5.00,000.00,019.8,018.9,000.0,028.1,021.0,20.7,0000.0,0005.75,0011.95,0005.10
2023-12-12 22:29:00,SystemResetWarning,0833.5,5.00,000.00,019.8,018.9,000.0,028.1,021.0,20.7,0000.0,0005.71,0012.20,0005.10
2023-12-12 22:30:00,SystemResetWarning,0833.5,5.00,000.00,019.8,018.9,000.0,028.1,021.1,20.7,0000.0,0005.72,0012.42,0005.11
2023-12-12 22:31:00,SystemResetWarning,0833.5,5.00,000.00,019.8,018.9,000.0,028.1,021.0,20.7,0000.0,0005.76,0012.74,0005.13
2023-12-12 22:32:00,SystemResetWarning,0833.5,5.00,000.00,019.8,018.9,000.0,028.1,021.0,20.7,0000.0,0005.74,0012.22,0005.14
2023-12-12 22:33:00,SystemResetWarning,0833.6,5.00,000.00,019.8,018.9,000.0,028.1,021.0,20.7,0000.0,0005.72,0011.75,0005.14
2023-12-12 22:34:00,SystemResetWarning,0833.6,5.00,000.00,019.8,018.9,000.0,028.1,021.0,20.7,0000.0,0005.68,0011.36,0005.13
2023-12-12 22:35:00,SystemResetWarning,0833.6,5.00,000.00,019.8,018.9,000.0,028.1,021.0,20.7,0000.0,0005.64,0011.01,0005.11
2023-12-12 22:36:00,SystemResetWarning,0833.7,5.00,000.00,019.8,018.9,000.0,028.1,021.0,20.7,0000.0,0005.57,0009.99,0005.09
2023-12-12 22:37:00,SystemResetWarning,0833.6,4.99,000.00,019.8,018.9,000.0,028.1,021.0,20.7,0000.0,0005.53,0010.68,0005.06
2023-12-12 22:38:00,SystemResetWarning,0833.7,5.00,000.00,019.8,018.9,000.0,028.1,021.0,20.7,0000.0,0005.55,0010.95,0005.04
2023-12-12 22:39:00,SystemResetWarning,0833.7,5.00,000.00,019.8,018.8,000.0,028.1,021.0,20.7,0000.0,0005.53,0010.66,0005.04
2023-12-12 22:40:00,SystemResetWarning,0833.7,5.00,000.00,019.8,018.9,000.0,028.1,021.0,20.6,0000.0,0005.55,0010.29,0005.03
2023-12-12 22:41:00,SystemResetWarning,0833.7,5.00,000.00,019.8,018.9,000.0,028.1,021.0,20.6,0000.0,0005.55,0010.21,0005.03
2023-12-12 22:42:00,SystemResetWarning,0833.7,5.01,000.00,019.8,018.9,000.0,028.1,021.0,20.7,0000.0,0005.49,0009.69,0005.02
2023-12-12 22:43:00,SystemResetWarning,0833.7,5.00,000.00,019.8,018.9,000.0,028.1,021.0,20.7,0000.0,0005.50,0009.72,0005.02
2023-12-12 22:44:00,SystemResetWarning,0833.7,5.00,000.00,019.8,018.9,000.0,028.1,021.0,20.7,0000.0,0005.52,0009.77,0005.02
2023-12-12 22:45:00,SystemResetWarning,0833.7,5.00,000.00,019.8,018.8,000.0,028.1,021.0,20.7,0000.0,0005.52,0010.06,0005.01
2023-12-12 22:46:00,SystemResetWarning,0833.7,5.00,000.00,019.8,018.8,000.0,028.1,021.0,20.6,0000.0,0005.54,0010.87,0005.02
2023-12-12 22:47:00,SystemResetWarning,0833.7,5.00,000.00,019.8,018.8,000.0,028.1,021.0,20.6,0000.0,0005.57,0011.24,0005.05
2023-12-12 22:48:00,SystemResetWarning,0833.7,4.99,000.00,019.8,018.8,000.0,028.1,021.0,20.6,0000.0,0005.62,0010.94,0005.08
2023-12-12 22:49:00,SystemResetWarning,0833.7,5.00,000.00,019.8,018.8,000.0,028.0,021.0,20.6,0000.0,0005.62,0010.57,0005.09
2023-12-12 22:50:00,SystemResetWarning,0833.8,5.01,000.00,019.8,018.8,000.0,028.0,021.0,20.6,0000.0,0005.60,0010.41,0005.10
2023-12-12 22:51:00,SystemResetWarning,0833.8,5.01,000.00,019.7,018.8,000.0,028.0,021.0,20.6,0000.0,0005.57,0010.21,0005.09
2023-12-12 22:52:00,SystemResetWarning,0833.8,5.01,000.00,019.7,018.8,000.0,028.0,021.0,20.6,0000.0,0005.53,0010.15,0005.08
2023-12-12 22:53:00,SystemResetWarning,0833.8,5.00,000.00,019.7,018.8,000.0,028.1,021.0,20.6,0000.0,0005.53,0010.15,0005.09
2023-12-12 22:54:00,SystemResetWarning,0833.8,5.00,000.00,019.7,018.8,000.0,028.0,021.0,20.6,0000.0,0005.55,0010.64,0005.09
2023-12-12 22:55:00,SystemResetWarning,0833.8,4.99,000.00,019.7,018.8,000.0,028.0,021.0,20.7,0000.0,0005.54,0010.76,0005.09
2023-12-12 22:56:00,SystemResetWarning,0833.8,5.00,000.00,019.7,018.8,000.0,028.0,021.0,20.7,0000.0,0005.52,0010.54,0005.08
2023-12-12 22:57:00,SystemResetWarning,0833.8,5.01,000.00,019.7,018.8,000.0,028.0,021.0,20.6,0000.0,0005.53,0010.14,0005.08
2023-12-12 22:58:00,SystemResetWarning,0833.8,5.00,000.00,019.7,018.8,000.0,028.0,021.0,20.6,0000.0,0005.49,0009.38,0005.05
2023-12-12 22:59:00,SystemResetWarning,0833.8,5.01,000.00,019.7,018.8,000.0,028.0,021.0,20.7,0000.0,0005.45,0009.27,0005.02
